Milwaukee, WI

12:19 AM CST on December 15, 2017 (GMT -0600)
Gen Mitchell International

Weather History for KMKE - December, 2017

Change the Weather History Date:

Thursday, December 7, 2017

  Actual Average Record
Temperature  
Mean Temperature 24 °F 29 °F  
Max Temperature 27 °F 35 °F 60 °F (1946)
Min Temperature 20 °F 23 °F -13 °F (1882)
Degree Days  
Heating Degree Days 41 36  
Month to date heating degree days 181 243  
Since 1 July heating degree days 1286 1608  
Cooling Degree Days 0 0  
Month to date cooling degree days 0 0  
Year to date cooling degree days 772 641  
Moisture  
Dew Point 8 °F    
Average Humidity 55    
Maximum Humidity 73    
Minimum Humidity 37    
Precipitation  
Precipitation T in 0.07 in 0.77 in (1892)
Month to date precipitation 0.10 0.54  
Year to date precipitation 33.73 33.26  
Snow  
Snow T in 0.30 in 6.80 in (1950)
Month to date snowfall T 2.1  
Since 1 July snowfall 0.2 4.8  
Snow Depth 0.00 in    
Sea Level Pressure  
Sea Level Pressure 30.11 in    
Wind  
Wind Speed 13 mph (WNW)    
Max Wind Speed 18 mph    
Max Gust Speed 27 mph    
Visibility 10 miles    
Events Snow    
T = Trace of Precipitation, MM = Missing Value Source: NWS Daily Summary

Daily Weather History Graph

Daily Weather History Graph

Search for Another Location

Airport or City:

Trip Planner

Search our weather history database for the weather conditions in past years. The results will help you decide how hot, cold, wet, or windy it might be!

Date:

Astronomy

Dec. 07, 2017 Rise Set
Actual Time 7:09 AM CST 4:17 PM CST
Civil Twilight 6:37 AM CST 4:49 PM CST
Nautical Twilight 6:01 AM CST 5:24 PM CST
Astronomical Twilight 5:27 AM CST 5:59 PM CST
Moon 9:06 PM CST (12/7) 10:46 AM CST (12/7)
Length of Visible Light 10h 11m
Length of Day
9h 07m
Waning Gibbous, 77% of the Moon is Illuminated
Dec 7
Waning Gibbous
Dec 10
Last Quarter
Dec 18
New
Dec 26
First Quarter
Jan 1
Full

Hourly Weather History & Observations

Time (CST) Temp. Windchill Dew Point Humidity Pressure Visibility Wind Dir Wind Speed Gust Speed Precip Events Conditions
12:52 AM 21.9 °F 8.2 °F 9.0 °F 58% 30.08 in 10.0 mi NW 16.1 mph 21.9 mph N/A   Overcast
1:52 AM 21.9 °F 9.8 °F 9.0 °F 58% 30.10 in 10.0 mi West 12.7 mph 20.7 mph N/A   Overcast
2:52 AM 21.0 °F 8.6 °F 10.0 °F 63% 30.10 in 10.0 mi WNW 12.7 mph - N/A   Overcast
3:52 AM 21.0 °F 8.6 °F 10.0 °F 63% 30.11 in 9.0 mi WNW 12.7 mph 23.0 mph 0.00 in   Overcast
4:52 AM 19.9 °F 7.3 °F 10.9 °F 68% 30.11 in 10.0 mi WNW 12.7 mph 25.3 mph N/A   Scattered Clouds
5:52 AM 19.9 °F 6.2 °F 12.9 °F 74% 30.13 in 9.0 mi WNW 15.0 mph - 0.00 in Snow Light Snow
6:52 AM 19.9 °F 6.7 °F 12.0 °F 71% 30.14 in 10.0 mi WNW 13.8 mph - 0.00 in   Mostly Cloudy
7:52 AM 19.9 °F 7.9 °F 12.0 °F 71% 30.15 in 10.0 mi WNW 11.5 mph - N/A   Mostly Cloudy
8:21 AM 21.0 °F 9.9 °F 12.0 °F 68% 30.11 in 10.0 mi WNW 10.4 mph 25.3 mph N/A   Mostly Cloudy
8:52 AM 21.9 °F 9.2 °F 12.0 °F 66% 30.15 in 9.0 mi WNW 13.8 mph - 0.00 in Snow Light Snow
9:52 AM 21.0 °F 7.6 °F 10.0 °F 63% 30.17 in 10.0 mi NW 15.0 mph - 0.00 in   Mostly Cloudy
10:32 AM 21.9 °F 8.2 °F 9.0 °F 58% 30.12 in 10.0 mi NW 16.1 mph 26.5 mph N/A   Scattered Clouds
10:52 AM 21.9 °F 7.3 °F 9.0 °F 58% 30.16 in 10.0 mi West 18.4 mph - N/A   Scattered Clouds
11:52 AM 24.1 °F 11.0 °F 9.0 °F 53% 30.14 in 10.0 mi WNW 16.1 mph 23.0 mph N/A   Partly Cloudy
12:52 PM 25.0 °F 13.1 °F 7.0 °F 46% 30.12 in 10.0 mi West 13.8 mph 25.3 mph N/A   Partly Cloudy
1:52 PM 26.1 °F 14.0 °F 6.1 °F 43% 30.11 in 10.0 mi WNW 15.0 mph 21.9 mph N/A   Partly Cloudy
2:52 PM 27.0 °F 15.2 °F 6.1 °F 41% 30.11 in 10.0 mi West 15.0 mph 21.9 mph N/A   Partly Cloudy
3:52 PM 26.1 °F 13.6 °F 3.9 °F 39% 30.12 in 10.0 mi West 16.1 mph - N/A   Partly Cloudy
4:52 PM 25.0 °F 15.5 °F 3.9 °F 41% 30.12 in 10.0 mi West 9.2 mph 19.6 mph N/A   Scattered Clouds
5:52 PM 24.1 °F 13.7 °F 3.9 °F 42% 30.12 in 10.0 mi West 10.4 mph - N/A   Partly Cloudy
6:52 PM 23.0 °F 13.9 °F 3.9 °F 44% 30.12 in 10.0 mi West 8.1 mph - N/A   Clear
7:52 PM 23.0 °F 11.7 °F 5.0 °F 46% 30.10 in 10.0 mi West 11.5 mph 25.3 mph N/A   Partly Cloudy
8:52 PM 21.9 °F 9.8 °F 5.0 °F 48% 30.09 in 10.0 mi West 12.7 mph - N/A   Scattered Clouds
9:52 PM 21.0 °F 7.6 °F 5.0 °F 50% 30.08 in 10.0 mi WSW 15.0 mph 23.0 mph N/A   Partly Cloudy
10:52 PM 21.0 °F 8.1 °F 5.0 °F 50% 30.06 in 10.0 mi West 13.8 mph - N/A   Partly Cloudy
11:52 PM 21.0 °F 9.9 °F 3.9 °F 48% 30.05 in 10.0 mi WSW 10.4 mph - N/A   Clear